星链-1856 (STARLINK-1856 )

导读

STARLINK-1856是美国太空探索技术公司(SpaceX)星链星座中的卫星,于2020年11月25日发射升空。星链计划旨在构建全球卫星互联网,为全球提供高速互联网服务。该卫星入轨后,推进了星链星座组网进程,进一步拓展了星链系统的全球覆盖范围与服务能力。

基本信息
目录编号:
47143
目录名称:
STARLINK-1856
国际标识:
2020-088X
轨道中心:
EARTH
卫星名称:
星链-1856
卫星全名:
星链-1856 (STARLINK-1856 )
卫星状态:
在轨 (已飞行2027 天)
发射日期:
2020-11-25 UTC
国别 :
美国 (US)
星等 :
--
轨道信息
数据来源 国际轨道数据
星历时间: 2026-06-15T00:00:02+0800
4小时前
查看轨道信息
半长轴: 6735.994km
偏心率: 0.0005397
轨道倾角: 53.043°
近地点辐角 48.795°
升交点赤经 160.776°
平近点角 305.060°
近地点: 354.221km
远地点: 361.493km
周期: 91.698分钟
每日圈数: 15.703638
详细信息
固有亮度:
5
最大亮度:
2.5
卫星平台:
Starlink V1.0
覆盖范围:
全球
运营商:
太空探索技术公司
运营商所在国:
美国
制造商(研发单位):
太空探索技术公司
制造商所在国:
美国
使用方式:
暂无
卫星简介
星链(Starlink)计划是由太空探索技术公司(SpaceX)提出的一个巨型低轨卫星互联网星座项目,计划在2019年至2024年间在太空搭建由约1.2万颗卫星组成的“星链”网络,其中1584颗将部署在地球上空550千米处的近地轨道,并从2020年开始工作。该卫星仍在工作。
2D轨道图
3D轨道图
轨道高度分析图
轨道倾角分析图
轨道综合分析图
查看轨道综合分析图